TimeCST,TemperatureF,Dew PointF,Humidity,Sea Level PressureIn,VisibilityMPH,Wind Direction,Wind SpeedMPH,Gust SpeedMPH,PrecipitationIn,Events,Conditions,WindDirDegrees,DateUTC
12:15 AM,21.2,6.8,54,30.03,10.0,NNW,13.8,-,N/A,,Scattered Clouds,340,2013-01-17 06:15:00
12:35 AM,21.2,6.8,54,30.05,10.0,North,13.8,-,N/A,,Mostly Cloudy,350,2013-01-17 06:35:00
12:55 AM,21.2,10.4,63,30.06,10.0,NNW,13.8,-,N/A,,Mostly Cloudy,340,2013-01-17 06:55:00
1:15 AM,21.2,10.4,63,30.07,10.0,North,13.8,-,N/A,,Mostly Cloudy,350,2013-01-17 07:15:00
1:35 AM,21.2,8.6,58,30.08,10.0,North,13.8,-,N/A,,Overcast,350,2013-01-17 07:35:00
1:55 AM,21.2,6.8,54,30.10,10.0,NNW,11.5,-,N/A,,Overcast,340,2013-01-17 07:55:00
2:15 AM,21.2,6.8,54,30.11,10.0,North,13.8,-,N/A,,Overcast,350,2013-01-17 08:15:00
2:35 AM,21.2,5.0,50,30.12,10.0,North,11.5,19.6,N/A,,Overcast,350,2013-01-17 08:35:00
2:55 AM,19.4,6.8,58,30.12,10.0,North,10.4,-,N/A,,Overcast,350,2013-01-17 08:55:00
3:35 AM,19.4,6.8,58,30.13,10.0,NNW,12.7,-,N/A,,Overcast,340,2013-01-17 09:35:00
3:55 AM,19.4,10.4,68,30.13,10.0,North,12.7,-,N/A,,Overcast,350,2013-01-17 09:55:00
4:15 AM,19.4,8.6,63,30.14,10.0,North,11.5,-,N/A,,Overcast,350,2013-01-17 10:15:00
4:35 AM,17.6,6.8,63,30.14,10.0,North,11.5,-,N/A,,Overcast,360,2013-01-17 10:35:00
4:55 AM,17.6,6.8,63,30.15,10.0,North,11.5,-,N/A,,Overcast,360,2013-01-17 10:55:00
5:15 AM,17.6,6.8,63,30.16,10.0,North,11.5,-,N/A,,Overcast,350,2013-01-17 11:15:00
5:35 AM,17.6,6.8,63,30.17,10.0,North,8.1,-,N/A,,Overcast,350,2013-01-17 11:35:00
5:55 AM,17.6,5.0,58,30.18,10.0,NNW,10.4,-,N/A,,Overcast,340,2013-01-17 11:55:00
6:15 AM,17.6,6.8,63,30.18,10.0,NNW,9.2,-,N/A,,Overcast,330,2013-01-17 12:15:00
6:35 AM,15.8,6.8,68,30.19,10.0,NNW,8.1,-,N/A,,Overcast,330,2013-01-17 12:35:00
6:55 AM,15.8,6.8,68,30.20,10.0,NNW,6.9,-,N/A,,Overcast,340,2013-01-17 12:55:00
7:15 AM,15.8,5.0,62,30.21,10.0,NNW,8.1,-,N/A,,Overcast,340,2013-01-17 13:15:00
7:35 AM,15.8,5.0,62,30.22,10.0,NNW,9.2,-,N/A,,Overcast,340,2013-01-17 13:35:00
7:55 AM,14.0,5.0,67,30.23,10.0,North,11.5,-,N/A,,Overcast,360,2013-01-17 13:55:00
8:15 AM,12.2,3.2,67,30.25,10.0,North,12.7,-,N/A,,Overcast,350,2013-01-17 14:15:00
8:35 AM,12.2,3.2,67,30.26,10.0,North,10.4,-,N/A,,Overcast,360,2013-01-17 14:35:00
8:55 AM,12.2,1.4,62,30.27,10.0,North,12.7,-,N/A,,Mostly Cloudy,350,2013-01-17 14:55:00
9:15 AM,12.2,5.0,73,30.27,10.0,North,12.7,-,N/A,,Clear,360,2013-01-17 15:15:00
9:35 AM,14.0,3.2,62,30.27,10.0,NNW,10.4,-,N/A,,Clear,330,2013-01-17 15:35:00
9:55 AM,14.0,1.4,57,30.27,10.0,NNW,10.4,-,N/A,,Partly Cloudy,330,2013-01-17 15:55:00
10:15 AM,15.8,1.4,53,30.28,10.0,NW,10.4,17.3,N/A,,Partly Cloudy,310,2013-01-17 16:15:00
10:35 AM,14.0,1.4,57,30.27,10.0,WNW,12.7,18.4,N/A,,Clear,300,2013-01-17 16:35:00
10:55 AM,14.0,1.4,57,30.27,10.0,WNW,15.0,19.6,N/A,,Scattered Clouds,300,2013-01-17 16:55:00
11:15 AM,14.0,3.2,62,30.27,10.0,WNW,11.5,-,N/A,,Mostly Cloudy,290,2013-01-17 17:15:00
11:35 AM,15.8,-0.4,49,30.25,10.0,West,12.7,18.4,N/A,,Scattered Clouds,270,2013-01-17 17:35:00
11:55 AM,15.8,-0.4,49,30.25,10.0,WNW,11.5,-,N/A,,Clear,290,2013-01-17 17:55:00
12:15 PM,15.8,-2.2,45,30.25,10.0,WNW,16.1,19.6,N/A,,Clear,290,2013-01-17 18:15:00
12:35 PM,15.8,-2.2,45,30.23,10.0,WNW,11.5,17.3,N/A,,Clear,290,2013-01-17 18:35:00
12:55 PM,15.8,-2.2,45,30.23,10.0,West,10.4,16.1,N/A,,Clear,280,2013-01-17 18:55:00
1:15 PM,17.6,-2.2,42,30.23,10.0,WNW,12.7,19.6,N/A,,Clear,290,2013-01-17 19:15:00
1:35 PM,17.6,-2.2,42,30.23,10.0,WNW,12.7,-,N/A,,Clear,300,2013-01-17 19:35:00
1:55 PM,17.6,-2.2,42,30.23,10.0,WNW,16.1,19.6,N/A,,Clear,300,2013-01-17 19:55:00
2:15 PM,17.6,-2.2,42,30.23,10.0,WNW,15.0,21.9,N/A,,Partly Cloudy,290,2013-01-17 20:15:00
2:35 PM,17.6,-2.2,42,30.23,10.0,NW,13.8,21.9,N/A,,Clear,310,2013-01-17 20:35:00
2:55 PM,17.6,-2.2,42,30.24,10.0,WNW,12.7,19.6,N/A,,Partly Cloudy,300,2013-01-17 20:55:00
3:15 PM,17.6,-2.2,42,30.23,10.0,NW,15.0,20.7,N/A,,Clear,310,2013-01-17 21:15:00
3:35 PM,17.6,-2.2,42,30.24,10.0,WNW,15.0,24.2,N/A,,Clear,290,2013-01-17 21:35:00
3:55 PM,15.8,-2.2,45,30.25,10.0,WNW,11.5,-,N/A,,Clear,300,2013-01-17 21:55:00
4:15 PM,15.8,-2.2,45,30.25,10.0,NW,16.1,-,N/A,,Clear,310,2013-01-17 22:15:00
4:35 PM,15.8,-4.0,41,30.26,10.0,WNW,12.7,18.4,N/A,,Clear,300,2013-01-17 22:35:00
4:55 PM,15.8,-4.0,41,30.26,10.0,NW,15.0,18.4,N/A,,Clear,310,2013-01-17 22:55:00
5:15 PM,15.8,-2.2,45,30.27,10.0,WNW,12.7,-,N/A,,Clear,300,2013-01-17 23:15:00
5:35 PM,14.0,-2.2,49,30.28,10.0,NW,10.4,-,N/A,,Clear,310,2013-01-17 23:35:00
5:55 PM,14.0,-2.2,49,30.29,10.0,NW,11.5,-,N/A,,Clear,310,2013-01-17 23:55:00
6:15 PM,14.0,-4.0,45,30.30,10.0,NW,8.1,-,N/A,,Clear,310,2013-01-18 00:15:00
6:35 PM,12.2,-2.2,53,30.30,10.0,NW,10.4,-,N/A,,Clear,310,2013-01-18 00:35:00
6:55 PM,12.2,-4.0,48,30.31,10.0,NW,11.5,-,N/A,,Clear,320,2013-01-18 00:55:00
7:15 PM,12.2,-4.0,48,30.31,10.0,NW,11.5,-,N/A,,Clear,310,2013-01-18 01:15:00
7:35 PM,12.2,-2.2,53,30.33,10.0,NW,9.2,-,N/A,,Clear,310,2013-01-18 01:35:00
7:55 PM,12.2,-4.0,48,30.33,10.0,NW,10.4,-,N/A,,Clear,310,2013-01-18 01:55:00
8:15 PM,12.2,-2.2,53,30.33,10.0,NW,9.2,-,N/A,,Clear,320,2013-01-18 02:15:00
8:55 PM,10.4,-2.2,57,30.34,10.0,NW,10.4,-,N/A,,Clear,320,2013-01-18 02:55:00
9:15 PM,10.4,-2.2,57,30.33,10.0,NW,9.2,-,N/A,,Clear,320,2013-01-18 03:15:00
9:35 PM,10.4,-4.0,52,30.34,10.0,NW,12.7,-,N/A,,Clear,320,2013-01-18 03:35:00
9:55 PM,10.4,-4.0,52,30.34,10.0,NNW,13.8,18.4,N/A,,Clear,330,2013-01-18 03:55:00
10:15 PM,10.4,-2.2,57,30.34,10.0,NW,12.7,-,N/A,,Clear,320,2013-01-18 04:15:00
10:35 PM,10.4,-2.2,57,30.33,10.0,NW,11.5,-,N/A,,Clear,320,2013-01-18 04:35:00
10:55 PM,10.4,-2.2,57,30.33,10.0,NW,9.2,-,N/A,,Clear,310,2013-01-18 04:55:00
11:15 PM,10.4,-2.2,57,30.34,10.0,NW,9.2,-,N/A,,Clear,310,2013-01-18 05:15:00
11:35 PM,10.4,-4.0,52,30.34,10.0,NW,9.2,-,N/A,,Clear,310,2013-01-18 05:35:00
11:55 PM,10.4,-2.2,57,30.34,10.0,NW,6.9,-,N/A,,Clear,310,2013-01-18 05:55:00